Regional Weather Roundup
Issued by NWS Huntsville, AL

Home | Current Version | Previous Version | Text Only | Print | Product List | Glossary On
Versions: 1 2 3 4 5 6 7 8 9 10 11 12 13 14 15 16 17 18 19 20 21 22 23 24 25 26 27 28 29 30 31 32 33 34 35 36 37 38 39 40 41 42 43 44 45 46 47 48 49 50
000
ASUS44 KHUN 230310
RWRHUN

WEATHER ROUNDUP FOR THE TENNESSEE VALLEY
NATIONAL WEATHER SERVICE HUNTSVILLE AL
900 PM CST MON DEC 22 2014

ALZ001>004-230400-
NORTHWEST ALABAMA

CITY           SKY/WX    TMP DP  RH WIND       PRES   REMARKS
SHOALS AIRPORT CLOUDY    54  51  90 SE9       29.75R
SHOALS TVA RES   N/A     54 N/A N/A MISG        N/A
$$

ALZ005>007-016-230400-
NORTH CENTRAL ALABAMA

CITY           SKY/WX    TMP DP  RH WIND       PRES   REMARKS
DECATUR AP     CLOUDY    50  48  93 SE12      29.78S
HUNTSVILLE AP  CLOUDY    52  48  86 SE12      29.78S
HUN NWS/UAH      N/A     50  47  92 SE12        N/A
MERIDIANVILLE  CLOUDY    48  45  87 SE9       29.79R
REDSTONE ARSN  CLOUDY    50  48  93 S12G20    29.77F
VINEMONT AP    CLOUDY    49  48  97 SE8       29.80S
$$

ALZ008>010-230400-
NORTHEAST ALABAMA

CITY           SKY/WX    TMP DP  RH WIND       PRES   REMARKS
ALBERTVILLE    CLOUDY    46  46 100 SE5       29.82R
FORT PAYNE     CLOUDY    45  41  87 N3        29.84S
SCOTTSBORO AP  CLOUDY    50  46  87 S8G16     29.83R
VALLEY HEAD      N/A     45 N/A N/A MISG        N/A
$$

TNZ076-096-097-230400-
SOUTHEASTERN MIDDLE TENNESSEE

CITY           SKY/WX    TMP DP  RH WIND       PRES   REMARKS
TULLAHOMA      CLOUDY    46  46 100 SE10      29.78R
WINCHESTER     CLOUDY    48  46  93 SE16      29.79R
$$

...SURROUNDING SITES...

CITY           SKY/WX    TMP DP  RH WIND       PRES   REMARKS
ATLANTA        CLOUDY    44  42  93 E10       29.92S
ANNISTON       CLOUDY    49  46  90 E9G20     29.86R
BIRMINGHAM     CLOUDY    53  51  93 VRB6      29.82F
CHATTANOOGA    LGT RAIN  48  45  89 S8        29.86R FOG
CORINTH        CLOUDY    55  54  94 SE9       29.68S
DALTON         LGT RAIN  46  46 100 S5        29.86S
GADSDEN        CLOUDY    48  45  87 E6        29.86R
GOLDEN TRNGL   CLOUDY    55  55 100 SE15      29.71F
HALEYVILLE     FOG       52  52 100 S12G17    29.77S VSB 1/2
JACKSON TN     CLOUDY    56  53  90 S9        29.65R
LEWISBURG      CLOUDY    51  48  89 S12       29.74R
MEMPHIS        CLOUDY    57  55  93 S5        29.65R
MURFREESBORO   CLOUDY    52  48  86 SE13      29.73S
NASHVILLE      CLOUDY    54  48  82 S14       29.73R
OXFORD MS      CLOUDY    55  55 100 S8        29.69R FOG
ROME           RAIN      45  43  93 S8        29.88S FOG
SAVANNAH       CLOUDY    54  54 100 S9        29.69F
TUPELO         CLOUDY    57  55  93 S12       29.70S FOG
TUSCALOOSA     CLOUDY    56  54  93 SE3       29.77F
$$

...GULF COAST WEATHER...

CITY           SKY/WX    TMP DP  RH WIND       PRES   REMARKS
GULFPORT       CLOUDY    64  63  96 S7        29.76R FOG
PASCAGOULA     MOCLDY    68  66  93 SW6       29.77S
MOBILE         MOCLDY    65  65 100 S8        29.78S
GULF SHORES    PTCLDY    69  67  96 S6        29.79S
PENSACOLA      MOCLDY    67  67 100 S7        29.80R FOG
DESTIN         PTCLDY    62  61  96 E3        29.82  FOG
PANAMA CITY    FOG       66  66 100 SE6       29.86R VSB 3/4
APPALACHICOLA  PTCLDY    69  65  86 S10       29.87R
$$



USA.gov is the U.S. government's official web portal to all federal, state and local government web resources and services.